TimeCDT,TemperatureF,Dew PointF,Humidity,Sea Level PressureIn,VisibilityMPH,Wind Direction,Wind SpeedMPH,Gust SpeedMPH,PrecipitationIn,Events,Conditions,WindDirDegrees,DateUTC
12:55 AM,73.9,73.0,97,30.14,10.0,Calm,Calm,-,N/A,,Clear,0,2013-08-26 05:55:00
1:55 AM,73.0,72.0,96,30.13,10.0,East,4.6,-,N/A,,Clear,90,2013-08-26 06:55:00
2:55 AM,73.0,72.0,96,30.12,10.0,East,5.8,-,N/A,,Clear,80,2013-08-26 07:55:00
3:55 AM,73.0,72.0,96,30.12,10.0,ENE,4.6,-,N/A,,Scattered Clouds,70,2013-08-26 08:55:00
4:05 AM,73.4,71.6,94,30.12,10.0,ENE,4.6,-,N/A,,Mostly Cloudy,60,2013-08-26 09:05:00
4:55 AM,73.0,72.0,96,30.12,10.0,East,5.8,-,N/A,,Overcast,80,2013-08-26 09:55:00
5:48 AM,73.4,71.6,94,30.14,10.0,East,6.9,-,N/A,,Mostly Cloudy,80,2013-08-26 10:48:00
5:55 AM,73.0,72.0,96,30.14,10.0,East,8.1,-,N/A,,Mostly Cloudy,80,2013-08-26 10:55:00
6:36 AM,73.4,71.6,94,30.14,10.0,East,4.6,-,N/A,,Overcast,90,2013-08-26 11:36:00
6:55 AM,73.9,72.0,93,30.15,10.0,East,6.9,-,N/A,,Overcast,90,2013-08-26 11:55:00
7:05 AM,73.4,71.6,94,30.15,10.0,East,6.9,-,N/A,,Overcast,90,2013-08-26 12:05:00
7:55 AM,73.9,72.0,93,30.17,10.0,East,4.6,-,N/A,,Overcast,90,2013-08-26 12:55:00
8:39 AM,75.2,71.6,89,30.17,10.0,East,8.1,-,N/A,,Overcast,100,2013-08-26 13:39:00
8:48 AM,75.2,71.6,89,30.17,10.0,East,6.9,-,N/A,,Overcast,100,2013-08-26 13:48:00
8:55 AM,75.0,72.0,90,30.17,10.0,East,6.9,-,N/A,,Overcast,90,2013-08-26 13:55:00
9:55 AM,77.0,72.0,84,30.19,10.0,East,10.4,-,N/A,,Overcast,80,2013-08-26 14:55:00
10:22 AM,80.6,71.6,74,30.19,10.0,East,9.2,-,N/A,,Mostly Cloudy,100,2013-08-26 15:22:00
10:55 AM,82.0,71.1,69,30.19,10.0,East,11.5,-,N/A,,Mostly Cloudy,90,2013-08-26 15:55:00
11:55 AM,84.0,71.1,65,30.18,10.0,ESE,8.1,-,0.00,Rain,Light Rain,120,2013-08-26 16:55:00
12:55 PM,87.1,71.1,59,30.16,10.0,SE,12.7,-,0.01,,Partly Cloudy,130,2013-08-26 17:55:00
1:55 PM,87.1,69.1,55,30.14,10.0,ESE,10.4,18.4,N/A,,Mostly Cloudy,110,2013-08-26 18:55:00
2:55 PM,84.9,71.1,63,30.12,10.0,South,5.8,-,0.00,,Mostly Cloudy,180,2013-08-26 19:55:00
3:55 PM,82.9,72.0,69,30.12,10.0,South,9.2,-,N/A,,Overcast,180,2013-08-26 20:55:00
4:55 PM,79.0,71.1,77,30.14,10.0,SSW,4.6,-,N/A,,Partly Cloudy,200,2013-08-26 21:55:00
5:55 PM,79.0,70.0,74,30.13,10.0,SW,5.8,-,N/A,,Partly Cloudy,220,2013-08-26 22:55:00
6:55 PM,79.0,70.0,74,30.12,10.0,SW,4.6,-,N/A,,Mostly Cloudy,230,2013-08-26 23:55:00
7:55 PM,77.0,70.0,79,30.13,10.0,South,3.5,-,N/A,,Partly Cloudy,170,2013-08-27 00:55:00
8:55 PM,75.9,71.1,85,30.13,10.0,South,3.5,-,N/A,,Clear,170,2013-08-27 01:55:00
9:55 PM,75.0,72.0,90,30.13,10.0,Calm,Calm,-,N/A,,Clear,0,2013-08-27 02:55:00
10:55 PM,73.9,71.1,91,30.13,10.0,Calm,Calm,-,N/A,,Clear,0,2013-08-27 03:55:00
11:55 PM,73.0,71.1,93,30.12,10.0,Calm,Calm,-,N/A,,Clear,0,2013-08-27 04:55:00